Starlink 5970

operational
NORAD ID: 56450 Int'l Des: 2023-064 Owner: SPXS Country: US Constellation: starlink
LEOCIRCULAR

关于 Starlink 5970

正在加载描述...

实时位置

正在加载3D地球...

即将过境

高度历史

Altitude vs Time

uPlot chart will show altitude changes over time

两行轨道根数

1 56450U 23064C 25352.66667824 -.00042984 00000-0 -36142-2 0 9994
2 56450 70.0007 348.7903 0003018 273.0995 260.5209 14.98357239 5726
Epoch: Dec 18, 2025 • Age: 9 hours

当前状态

高度 589.9 km
速度 7.57 km/s
星下点 -52.15°S, 136.56°W
发射日期 May 10, 2023
运行时间 2.6 years
类型 internet

技术详情

分类 Payload
质量 305.00 kg
干质量 290.00 kg
总质量 305.00 kg
长度 0.20 m
直径 2.80 m
跨度 9.00 m
形状 Box + pan
制造商 SPXS
平台类型 Starlink
阶段状态 In Orbit
所有者/国家 SPXS/US

大型星座

Loading constellations...